Regional Weather Roundup
Issued by NWS

Home | Current Version | Previous Version | Graphics & Text | Print | Product List | Glossary On
Versions: 1 2 3 4 5 6 7 8 9 10 11 12 13 14 15 16 17 18 19 20 21 22 23 24 25 26 27 28 29 30 31 32 33 34 35 36 37 38 39 40 41 42 43 44 45 46 47 48 49 50
788
ASUS43 KBIS 241002
RWRND

NORTH DAKOTA REGIONAL WEATHER ROUNDUP
NATIONAL WEATHER SERVICE BISMARCK ND
400 AM CST TUE JAN 24 2017

NOTE: "FAIR" INDICATES FEW OR NO CLOUDS BELOW 12,000 FEET WITH NO
SIGNIFICANT WEATHER AND/OR OBSTRUCTIONS TO VISIBILITY.


NDZ001>003-009>011-017-241100-
NORTHWEST NORTH DAKOTA

CITY           SKY/WX    TMP DP  RH WIND       PRES   REMARKS
WILLISTON      CLOUDY    22  17  81 NW9       29.87R WCI  12
MINOT          CLOUDY    25  18  74 W15       29.82S WCI  13
$$

NDZ018>021-031>035-040>046-241100-
SOUTHWEST NORTH DAKOTA

CITY           SKY/WX    TMP DP  RH WIND       PRES   REMARKS
BISMARCK       CLOUDY    24  19  81 NW8       29.87R WCI  15
DICKINSON      CLOUDY    20  17  88 NW7       29.80S WCI  11
GARRISON         N/A     20  17  88 W6        29.85R WCI  12
HETTINGER ARPT LGT SNOW  22  20  92 N6        29.81S FOG     WCI  14
$$

NDZ004>008-012>016-024-026-027-054-241100-
NORTHEAST NORTH DAKOTA

CITY           SKY/WX    TMP DP  RH WIND       PRES   REMARKS
GRAND FORKS    CLOUDY    26  19  74 W12       29.86R WCI  16
GRND FRKS AFB  CLOUDY    25  20  80 W7        29.85S WCI  17
DEVILS LAKE    CLOUDY    22  19  89 W12       29.82S WCI  10
$$

NDZ022-023-025-028>030-036>039-047>053-241100-
SOUTHEAST NORTH DAKOTA

CITY           SKY/WX    TMP DP  RH WIND       PRES   REMARKS
FARGO          CLOUDY    32  26  78 W5        29.87R
JAMESTOWN      CLOUDY    25  22  88 NW13      29.84R WCI  14
$$





USA.gov is the U.S. government's official web portal to all federal, state and local government web resources and services.